Chatawa, MS

1:21 AM CDT on September 28, 2016 (GMT -0500)
McComb-Pike County-Lewis

Weather History for KMCB - November, 2012

Change the Weather History Date:

Tuesday, November 20, 2012

  Actual Average Record
Temperature  
Mean Temperature 58 °F -  
Max Temperature 71 °F 67 °F 79 °F (1956)
Min Temperature 46 °F 43 °F 28 °F (1951)
Degree Days  
Heating Degree Days 6    
Growing Degree Days 8 (Base 50)    
Moisture  
Dew Point 45 °F    
Average Humidity 69    
Maximum Humidity 93    
Minimum Humidity 32    
Precipitation  
Precipitation 0.00 in - - ()
Sea Level Pressure  
Sea Level Pressure 30.17 in    
Wind  
Wind Speed 1 mph (NNW)    
Max Wind Speed 8 mph    
Max Gust Speed -    
Visibility 10 miles    
Events      
Averages and records for this station are not official NWS values.
T = Trace of Precipitation, MM = Missing Value Source: NWS Daily Summary

Daily Weather History Graph

Daily Weather History Graph

Search for Another Location

Airport or City:

Trip Planner

Search our weather history database for the weather conditions in past years. The results will help you decide how hot, cold, wet, or windy it might be!

Date:

Astronomy

Nov. 20, 2012 Rise Set
Actual Time 6:33 AM CST 5:01 PM CST
Civil Twilight 6:07 AM CST 5:27 PM CST
Nautical Twilight 5:38 AM CST 5:56 PM CST
Astronomical Twilight 5:09 AM CST 6:25 PM CST
Moon 12:21 PM CST (11/20) No Moon Set
Length of Visible Light 11h 19m
Length of Day
10h 27m
First Quarter, 51% of the Moon is Illuminated
Nov 20
First Quarter
Nov 28
Full
Dec 6
Last Quarter
Dec 13
New
Dec 19
First Quarter

Hourly Weather History & Observations

Time (CST) Temp. Dew Point Humidity Pressure Visibility Wind Dir Wind Speed Gust Speed Precip Events Conditions
12:53 AM 53.1 °F 46.0 °F 77% 30.17 in 10.0 mi Calm Calm - N/A   Scattered Clouds
1:53 AM 51.1 °F 45.0 °F 80% 30.17 in 10.0 mi Calm Calm - N/A   Partly Cloudy
2:53 AM 51.1 °F 45.0 °F 80% 30.18 in 10.0 mi Calm Calm - N/A   Clear
3:53 AM 51.1 °F 46.0 °F 83% 30.17 in 10.0 mi Calm Calm - N/A   Partly Cloudy
4:53 AM 50.0 °F 46.9 °F 89% 30.18 in 10.0 mi Calm Calm - N/A   Clear
5:53 AM 48.9 °F 46.0 °F 90% 30.19 in 10.0 mi Calm Calm - N/A   Partly Cloudy
6:53 AM 46.9 °F 45.0 °F 93% 30.20 in 10.0 mi Calm Calm - N/A   Partly Cloudy
7:53 AM 52.0 °F 48.9 °F 89% 30.22 in 10.0 mi Calm Calm - N/A   Clear
8:53 AM 55.9 °F 48.0 °F 75% 30.22 in 10.0 mi Calm Calm - N/A   Partly Cloudy
9:53 AM 61.0 °F 48.0 °F 62% 30.22 in 10.0 mi Calm Calm - N/A   Scattered Clouds
10:53 AM 66.9 °F 41.0 °F 39% 30.21 in 10.0 mi North 3.5 mph - N/A   Mostly Cloudy
11:53 AM 68.0 °F 41.0 °F 37% 30.17 in 10.0 mi NW 3.5 mph - N/A   Mostly Cloudy
12:53 PM 69.1 °F 39.9 °F 35% 30.16 in 10.0 mi NNW 8.1 mph - N/A   Clear
1:53 PM 69.1 °F 39.9 °F 35% 30.14 in 10.0 mi NNE 4.6 mph - N/A   Overcast
2:53 PM 71.1 °F 39.9 °F 32% 30.13 in 10.0 mi NNW 6.9 mph - N/A   Scattered Clouds
3:53 PM 69.1 °F 42.1 °F 38% 30.13 in 10.0 mi NNW 6.9 mph - N/A   Scattered Clouds
4:53 PM 66.0 °F 43.0 °F 43% 30.13 in 10.0 mi North 3.5 mph - N/A   Mostly Cloudy
5:53 PM 57.0 °F 46.9 °F 69% 30.14 in 10.0 mi Calm Calm - N/A   Scattered Clouds
6:53 PM 54.0 °F 46.0 °F 75% 30.16 in 10.0 mi Calm Calm - N/A   Clear
7:53 PM 52.0 °F 46.0 °F 80% 30.17 in 10.0 mi Calm Calm - N/A   Clear
8:53 PM 48.9 °F 46.0 °F 90% 30.18 in 10.0 mi Calm Calm - N/A   Clear
9:53 PM 48.0 °F 45.0 °F 89% 30.18 in 10.0 mi Calm Calm - N/A   Clear
10:53 PM 46.9 °F 45.0 °F 93% 30.18 in 10.0 mi Calm Calm - N/A   Clear
11:53 PM 46.0 °F 44.1 °F 93% 30.17 in 10.0 mi Calm Calm - N/A   Clear